Content
SEND FEEDBACK

Daily
Averages
Monthly
Summary
United States of America

OAKES, NORTH DAKOTA


Home > North America > United States > North Dakota
Elevation: 401 meters     Latitude: 46 08N     Longitude: 098 05W

WEATHER
 
SELECT A DAY
Number of Records: 77,810;   Date Range: 5/13/11 - 10/23/14
 
SHARE

PRINT THIS DATA

[ ← Previous Day ]
WEATHER ALMANAC - 13 MAY, 2014
[ Next Day → ]
[ °F ]   °C
Weather ElementAverageHighLow
Temperature8.7 °C12 °C (5:35 pm)3 °C (11:15 pm)
Dewpoint-0.3 °C2 °C (11:55 am)-2 °C (4:55 pm)
Humidity54.8 %81 % (11:15 pm)41 % (5:15 pm)
Barometer1022 hPa1022.4 hPa (2:55 pm)1021 hPa (11:55 am)
Wind Speed23.3 km/h38.9 km/h (12:55 pm)
Wind Gust53.8 km/h (1:15 pm)
Weather ElementAverage
Visibility16.1 km
Wind DirectionW (266.6 °)

Weather ElementTotal
Precipitation---
Heating Degree Days10.8 (Base 18.3)
Averaged from 35 records on 13 May, 2014
WEATHER CONDITIONS BREAKOUT
WIND DIRECTION BREAKOUT
WEATHER BY HOUR - 13 MAY, 2014
[ °F ]   °C
Local TimeTemperatureDewpointHumidityBarometerVisibilityWind DirectionWind SpeedGust SpeedPrecipitationEventsConditions
11:55 AM9 °C2 °C62 %1021 hPa16.1 kmNW (320°)33.3 km/h48.1 km/hMostly Cloudy
12:35 PM9 °C2 °C62 %1021 hPa16.1 kmNNW (340°)35.2 km/h50.1 km/hOvercast
12:55 PM9 °C1 °C58 %1021 hPa16.1 kmNW (320°)38.9 km/h50.1 km/hOvercast
1:15 PM10 °C0 °C50 %1021.3 hPa16.1 kmNW (310°)38.9 km/h53.8 km/hOvercast
1:35 PM9 °C0 °C54 %1021.7 hPa16.1 kmNW (320°)33.3 km/h48.1 km/hOvercast
1:55 PM9 °C0 °C54 %1021.7 hPa16.1 kmNW (320°)38.9 km/h46.3 km/hOvercast
2:15 PM9 °C0 °C54 %1022 hPa16.1 kmNW (320°)29.6 km/h44.4 km/hOvercast
2:35 PM9 °C0 °C54 %1022 hPa16.1 kmNW (310°)31.5 km/h42.6 km/hOvercast
2:55 PM10 °C0 °C50 %1022.4 hPa16.1 kmNW (310°)35.2 km/h48.1 km/hOvercast
3:15 PM10 °C0 °C50 %1022.4 hPa16.1 kmNW (320°)37 km/h46.3 km/hOvercast
3:35 PM10 °C0 °C50 %1022.4 hPa16.1 kmNNW (330°)29.6 km/h46.3 km/hOvercast
3:55 PM10 °C0 °C50 %1022.4 hPa16.1 kmWNW (300°)35.2 km/h46.3 km/hOvercast
4:15 PM10 °C0 °C50 %1022.4 hPa16.1 kmNW (320°)31.5 km/h46.3 km/hMostly Cloudy
4:35 PM10 °C0 °C50 %1022.4 hPa16.1 kmNW (310°)29.6 km/h46.3 km/hMostly Cloudy
4:55 PM10 °C-2 °C43 %1022 hPa16.1 kmWNW (300°)33.3 km/h48.1 km/hMostly Cloudy
5:15 PM11 °C-2 °C41 %1022 hPa16.1 kmWNW (290°)29.6 km/h37 km/hScattered Clouds
5:35 PM12 °C-1 °C41 %1022 hPa16.1 kmWNW (300°)27.8 km/h38.9 km/hScattered Clouds
5:55 PM10 °C-1 °C47 %1022 hPa16.1 kmNW (310°)29.6 km/h35.2 km/hMostly Cloudy
6:15 PM12 °C-1 °C41 %1021.7 hPa16.1 kmWNW (300°)25.9 km/h37 km/hMostly Cloudy
6:35 PM11 °C-2 °C41 %1021.7 hPa16.1 kmWNW (300°)27.8 km/h42.6 km/hScattered Clouds
6:55 PM11 °C-2 °C41 %1021.7 hPa16.1 kmNW (320°)31.5 km/h40.7 km/hPartly Cloudy
7:15 PM11 °C-2 °C41 %1021.3 hPa16.1 kmWNW (300°)31.5 km/hClear
7:35 PM10 °C-1 °C47 %1021.7 hPa16.1 kmNW (320°)20.4 km/hClear
7:55 PM10 °C-1 °C47 %1021.7 hPa16.1 kmNW (320°)16.7 km/hClear
8:15 PM10 °C-2 °C43 %1021.7 hPa16.1 kmNW (310°)16.7 km/hClear
8:35 PM8 °C0 °C57 %1021.7 hPa16.1 kmNW (320°)13 km/hClear
8:55 PM7 °C0 °C61 %1021.7 hPa16.1 kmNNW (330°)11.1 km/hClear
9:15 PM7 °C0 °C61 %1021.7 hPa16.1 kmNW (320°)9.3 km/hClear
9:55 PM6 °C0 °C66 %1022 hPa16.1 kmWNW (290°)5.6 km/hClear
10:15 PM5 °C0 °C70 %1022 hPa16.1 kmCalmClear
10:35 PM5 °C0 °C70 %1022 hPa16.1 kmWSW (250°)7.4 km/hClear
10:55 PM4 °C0 °C75 %1022 hPa16.1 kmCalmClear
11:15 PM3 °C0 °C81 %1022.4 hPa16.1 kmCalmClear
11:35 PM4 °C0 °C75 %1022.4 hPa16.1 kmCalmClear
11:55 PM3 °C0 °C81 %1022.4 hPa16.1 kmCalmClear
Hourly data recorded from K2D5, located 0 kilometers away from Oakes, North Dakota







STORIES FROM OUR PARTNERS